#timestamp,LO_Frequency,Hit,StdDev 
1542103215.2,286047000.2,N
1542103235.0,286047000.2,N
1542103235.9,286047000.2,N
1542103255.8,286047000.3,N
1542103275.6,286047001.2,N
1542103295.4,286046999.6,N
1542103315.3,286046999.1,N
1542103335.1,286046999.6,N
1542103355.8,286046999.4,N
1542103375.7,286046995.2,Y
1542103395.5,286046995.2,P
1542103415.4,286046995.9,N
1542103435.2,286046995.7,N
1542103455.0,286046997.3,N
1542103455.9,286046997.3,N
1542103475.8,286046999.6,N
1542103495.6,286046995.6,N
1542103515.5,286046993.3,Y
1542103535.3,286046995.3,P
1542103555.1,286046997.2,P
1542103575.9,286046997.4,N
1542103595.7,286046998.2,N
1542103615.5,286046998.3,N
1542103635.4,286046998.8,N
1542103655.2,286046999.4,N
1542103675.1,286046999.5,N
1542103676.0,286046999.5,N
1542103695.8,286046996.8,N
1542103715.6,286046997.9,N
1542103735.5,286046995.5,Y
1542103755.3,286046996.6,P
1542103775.2,286046997.1,P
1542103795.9,286046998.2,P
1542103815.7,286046999.9,N
1542103835.6,286046998.2,N
1542103855.4,286047000.3,N
1542103875.2,286047000.8,N
1542103895.1,286046998.2,N
1542103896.0,286046998.2,N
1542103915.8,286046996.7,N
1542103935.7,286046996.0,Y
1542103955.5,286046995.2,P
1542103975.3,286046997.6,N
1542103995.2,286046997.3,N
1542104015.0,286046997.3,N
1542104015.9,286046997.3,N
1542104035.7,286046997.3,N
1542104055.6,286046997.0,Y
1542104075.4,286047000.6,P
1542104095.3,286046998.3,N
1542104115.1,286046997.1,N
1542104135.8,286046997.0,N
1542104155.7,286046999.1,N
1542104175.5,286046997.0,N
1542104195.4,286046997.3,N
1542104215.2,286046996.8,N
1542104235.0,286046997.9,N
1542104235.9,286046997.9,N
1542104255.8,286046999.0,N
1542104275.6,286046997.8,N
1542104295.5,286046995.5,Y
1542104315.3,286046997.1,P
1542104335.1,286046996.5,P
1542104355.9,286046998.8,N
1542104375.7,286046998.7,N
1542104395.5,286047001.2,N
1542104415.4,286047000.0,N
1542104435.2,286046998.4,N
1542104455.1,286046996.5,N
1542104456.0,286046996.5,N
1542104475.8,286046997.8,N
1542104495.6,286046996.9,N
1542104515.5,286046996.5,N
1542104535.3,286046999.1,N
1542104555.1,286046997.8,N
1542104575.9,286046997.6,N
1542104595.7,286046997.6,N
1542104615.6,286046995.0,Y
1542104635.4,286046995.2,P
1542104655.2,286046995.1,P
1542104675.1,286046999.6,N
1542104676.0,286046999.6,N
1542104695.8,286046994.9,N
1542104715.7,286046995.3,N
1542104735.5,286046995.8,N
1542104755.3,286046995.6,N
1542104775.2,286046997.8,N
1542104795.0,286046994.9,N
1542104795.9,286046994.9,N
1542104815.7,286046995.4,N
1542104835.6,286046995.4,N
1542104855.4,286046995.1,N
1542104875.3,286046995.6,N
1542104895.1,286046996.2,N
1542104896.0,286046996.2,N
1542104915.8,286046998.0,N
1542104935.7,286046996.0,N
1542104955.5,286046996.2,N
1542104975.4,286046994.0,Y
1542104995.2,286046999.6,P
1542105015.0,286046998.8,N
1542105015.9,286046998.8,N
1542105035.8,286046998.4,N
1542105055.6,286046999.3,N
1542105075.4,286046999.4,N
1542105095.3,286046998.0,N
1542105115.1,286046997.3,N
1542105135.9,286046997.3,N
1542105155.7,286046995.4,Y
1542105175.5,286046997.1,P
1542105195.4,286046995.3,P
1542105215.2,286046996.5,N
1542105235.0,286046996.7,Y
1542105236.0,286046996.7,P
1542105255.8,286047000.0,N
1542105275.6,286047000.6,N
1542105295.5,286046999.3,N
1542105315.3,286046999.3,N
1542105335.1,286047001.0,N
1542105355.9,286047000.9,N
1542105375.7,286046998.2,N
1542105395.6,286046999.9,N
1542105415.4,286047000.4,N
1542105435.2,286047001.1,N
1542105455.1,286047001.2,N
1542105456.0,286047001.2,N
1542105475.8,286046998.4,N
1542105495.6,286046999.6,N
1542105515.5,286047001.2,N
1542105535.3,286047000.9,N
1542105555.2,286047000.0,N
1542105575.9,286046999.1,N
1542105595.7,286046996.6,N
1542105615.6,286046999.6,N
1542105635.4,286046996.7,N
1542105655.3,286046994.9,Y
1542105675.1,286046997.6,P
1542105676.0,286046997.6,N
1542105695.8,286046997.7,N
1542105715.7,286046996.5,Y
1542105735.5,286047000.6,P
1542105755.3,286047002.4,N
1542105775.2,286047001.1,N
1542105795.0,286047000.4,N
1542105795.9,286047000.4,N
1542105815.8,286047002.8,N
1542105835.6,286047000.8,N
1542105855.4,286046999.3,N
1542105875.3,286046996.6,N
1542105895.1,286046997.0,N
1542105915.8,286046998.7,N
1542105935.7,286046997.2,N
1542105955.5,286046997.1,N
1542105975.4,286046996.6,N
1542105995.2,286046998.7,N
1542106015.0,286046997.0,N
1542106015.9,286046997.0,N
1542106035.8,286046999.2,N
1542106055.6,286046997.1,N
1542106075.5,286046997.3,N
1542106095.3,286046995.3,N
1542106115.1,286046997.9,N
1542106135.9,286046993.7,Y
1542106155.7,286046996.7,P
1542106175.5,286046997.7,N
1542106195.4,286046995.0,P
1542106215.2,286046996.4,N
1542106235.1,286046994.1,Y
1542106236.0,286046994.1,P
1542106255.8,286046997.1,N
1542106275.6,286046994.9,P
1542106295.5,286046994.9,Y
1542106315.3,286047002.6,P
1542106335.2,286047002.1,N
1542106355.9,286047000.6,N
1542106375.7,286047002.8,N
1542106395.6,286046999.7,N
1542106415.4,286046999.7,N
1542106435.2,286046998.4,N
1542106455.1,286046998.7,N
1542106456.0,286046998.7,N
1542106475.8,286047000.4,N
1542106495.7,286047001.2,N
1542106515.5,286047001.1,N
1542106535.3,286046998.4,N
1542106555.2,286046996.6,N
1542106575.9,286047001.0,N
1542106595.7,286046999.5,N
1542106615.6,286046998.7,N
1542106635.4,286047000.6,N
1542106655.3,286046999.7,N
1542106675.1,286047000.5,N
1542106676.0,286047000.5,N
1542106695.8,286047000.9,N
1542106715.7,286047001.2,N
1542106735.5,286046999.5,N
1542106755.3,286046998.3,N
1542106775.2,286047000.6,N
1542106795.0,286046998.8,N
1542106795.9,286046998.8,N
